[Iaude] MPEC Y13: 2020 XO6 [a=1.55,e=0.36,i=11.3,H=25.4]

mpec at marsden.cfa.harvard.edu mpec at marsden.cfa.harvard.edu
Wed Dec 16 09:16:20 EST 2020


M.P.E.C. 2020-Y13                             Issued 2020 December 16, 14:15 UT

     The Minor Planet Electronic Circulars contain information on unusual
         minor planets and routine data on comets.  They are published
    on behalf of Division F of the International Astronomical Union by the
          Minor Planet Center, Smithsonian Astrophysical Observatory,
                          Cambridge, MA 02138, U.S.A.

             Prepared using the Tamkin Foundation Computer Network

                              MPC at CFA.HARVARD.EDU
            URL https://www.minorplanetcenter.net/    ISSN 1523-6714

                                    2020 XO6                                    


Observations:
     K20X06O  C2020 12 07.30709 03 33 46.38 -02 45 50.1          20.8 GVEY013G96
     K20X06O  C2020 12 07.31223 03 33 47.66 -02 44 35.0          21.2 GVEY013G96
     K20X06O  C2020 12 07.31737 03 33 48.97 -02 43 18.6          21.8 GVEY013G96
     K20X06O  C2020 12 07.32252 03 33 50.27 -02 42 01.9          20.7 GVEY013G96
     K20X06O* C2020 12 11.26772603 51 50.971+11 57 32.03         20.68wUEY013F51
     K20X06O  C2020 12 11.28022303 51 53.653+11 59 59.87         20.74GVEY013F51
     K20X06O  C2020 12 11.29281703 51 56.341+12 02 28.89         21.09wUEY013F51
     K20X06O  C2020 12 11.30551203 51 59.016+12 04 58.75         20.87GVEY013F51
     K20X06O  C2020 12 16.20542404 10 44.36 +25 15 02.8          21.18GVEY013G96
     K20X06O  C2020 12 16.21063004 10 45.27 +25 15 43.4          21.59GVEY013G96
     K20X06O  C2020 12 16.21583704 10 46.19 +25 16 24.5                VEY013G96
     K20X06O  C2020 12 16.22105004 10 47.12 +25 17 04.9          21.52GVEY013G96

Observer details:
F51 Pan-STARRS 1, Haleakala.  Observers J. Bulger, T. Lowe, A. Schultz, M.
    Willman, K. Chambers.  Measurers K. Chambers, S. Chastel, T. de Boer, L.
    Denneau, J. Fairlamb, H. Flewelling, M. Huber, C.-C. Lin, E. Magnier, Y.
    Ramanjooloo, R. Wainscoat, R. Weryk.  1.8-m Ritchey-Chretien + CCD.
G96 Mt. Lemmon Survey.  Observer T. A. Pruyne.  Measurers D. Rankin, B. Gray,
    F. C. Shelly, E. J. Christensen, G. A. Farneth, D. C. Fuls, A. R. Gibbs,
    A. D. Grauer, H. Groeller, R. A. Kowalski, S. M. Larson, G. J. Leonard, T.
    A. Pruyne, R. L. Seaman, K. W. Wierzchos.  1.5-m reflector + 10K CCD.

Orbital elements:
2020 XO6                                                 Earth MOID = 0.0608 AU
Epoch 2020 Dec. 17.0 TT = JDT 2459200.5                 Veres
M  21.70920              (2000.0)            P               Q
n   0.51296750     Peri.  316.14097     +0.78523721     -0.58841022
a   1.5455254      Node    80.88066     +0.60819253     +0.67449754
e   0.3593274      Incl.   11.26102     +0.11620828     +0.44589963
P   1.92           H   25.4           G   0.15           U   8
Residuals in seconds of arc
201207 G96  0.3+  0.5+    201211 F51  0.0   0.1-    201216 G96  0.1+  0.1-
201207 G96  0.0   0.5-    201211 F51  0.1-  0.2-    201216 G96  0.0   0.2-
201207 G96  0.0   0.2-    201211 F51  0.0   0.1+    201216 G96  0.0   0.2+
201207 G96  0.1-  0.2+    201211 F51  0.1-  0.2+    201216 G96  0.2+  0.0

Ephemeris:
2020 XO6                 a,e,i = 1.55, 0.36, 11                  q = 0.9902
Date    TT    R. A. (2000) Decl.     Delta      r    Elong.  Phase     V
2020 11 16    00 55 40.0 -65 52 49   0.1134  0.9970    90.8    82.7    23.6
...
2020 12 01    02 58 37.4 -29 36 56   0.06906 1.0264   124.2    52.6    21.6
...
2020 12 09    03 41 50.1 +03 57 07   0.07312 1.0504   152.6    25.5    21.0
...
2020 12 15    04 06 23.4 +22 30 16   0.09206 1.0716   160.7    17.7    21.3
2020 12 16    04 09 59.3 +24 48 17   0.09615 1.0753   160.6    17.7    21.4
2020 12 17    04 13 28.1 +26 54 29   0.1004  1.0792   160.3    17.9    21.5
...
2020 12 23    04 32 14.9 +36 11 28   0.1297  1.1035   156.1    21.1    22.2
...
2020 12 31    04 53 12.0 +42 48 03   0.1753  1.1387   150.2    25.4    23.1
...
2021 01 15    05 26 01.9 +47 10 05   0.2755  1.2116   141.5    30.3    24.3

M. P. C. Staff               (C) Copyright 2020 MPC           M.P.E.C. 2020-Y13




More information about the Iaude mailing list